Weather in Sumarokovo

Russia / Krasnoyarsk Krai     61°39′29″N   89°45′06″E
temp.,
°C
wind,
m/s
gust,
m/s
humid.,
%
clouds,
%
prec.,
mm/h
press.,
hPa
HPBL,
m
13 may, thu
thu1301:00+7ese225899 0.0 101438
04:00+7ese2365100 0.0 101350
07:00+9s31059100 0.1 1012486
10:00+12ssw3752100 0.1 1011945
13:00+15sw4644100 0.2 10101863
16:00+10w2583100 1.5 1010468
19:00+9wnw2575100 2.0 1010621
22:00+5sse1187100 0.0 101010
14 may, fri
fri1401:00+5ssw2586100 0.1 1008136
04:00+2nw41196100 2.0 1008623
07:00+2wnw4875100 2.1 10091258
10:00+2wnw4776100 0.3 10091027
13:00+2nw51094100 1.2 1010782
16:00+4nw587599 0.3 10121092
19:00+6nw376299 0.4 10131340
22:00+3wsw1172100 0.0 101210
15 may, sat
sat1501:00+2ssw2875100 0.0 1009245
04:00+1s3997100 0.8 1006366
07:00+3sw3996100 2.0 1004674
10:00+3nw4992100 0.2 1006918
13:00+4nw5969100 0.3 10101174
16:00+6nw584998 0.0 10121750
19:00+6nnw48498 0.0 10131709
22:00+1nw25665 0.0 1014114
16 may, sun
sun1601:00−1nw22783 0.0 101642
04:00−3nw27775 0.0 1017231
07:000nnw385248 0.0 1019745
10:00+3nw46375 0.0 10191271
13:00+5nnw46285 0.0 10181643
16:00+6nnw46285 0.0 10181841
19:00+5n45315 0.0 10181623
22:000nne225378 0.0 101927
17 may, mon
mon1701:00−1ne1261100 0.0 101834
04:00−1e1258100 0.0 101737
07:00+1ese2347100 0.0 1016345
10:00+5e233497 0.0 1014960
13:00+8e223096 0.0 10121465
16:00+9ne2227100 0.0 10111753
19:00+8nne322792 0.0 10111660
22:00+3ne245016 0.0 101276